N114HF KFLG-KSEZ

Flight info

Callsign N114HF
Flight time 0h 12m
Altitude 8500
Route VFR SOUTH
Aircraft BE36/L-VGD/C

Departure

Time 2026-04-25 00:43
Airport Flagstaff Pulliam Airport (KFLG)

Arrival

Time 2026-04-25 00:55
Airport Sedona Airport (KSEZ)
Time Latitude Longitude Altitude Speed Heading
2026-04-25 00:37 35.13858 -111.67435 6994 ft 0 kts 351°
2026-04-25 00:40 35.13851 -111.67391 6994 ft 15 kts 170°
2026-04-25 00:40 35.13854 -111.67288 6994 ft 23 kts 36°
2026-04-25 00:41 35.14019 -111.67117 6994 ft 37 kts 42°
2026-04-25 00:41 35.14226 -111.66898 6991 ft 42 kts 39°
2026-04-25 00:41 35.14229 -111.66756 6989 ft 17 kts 167°
2026-04-25 00:41 35.14062 -111.66890 6992 ft 51 kts 220°
2026-04-25 00:42 35.13718 -111.67259 7041 ft 71 kts 222°
2026-04-25 00:42 35.13304 -111.67656 7233 ft 78 kts 219°
2026-04-25 00:42 35.12850 -111.68069 7413 ft 84 kts 217°
2026-04-25 00:42 35.12369 -111.68520 7572 ft 90 kts 219°
2026-04-25 00:43 35.11771 -111.68864 7702 ft 100 kts 195°
2026-04-25 00:43 35.11036 -111.68939 7807 ft 110 kts 186°
2026-04-25 00:43 35.10301 -111.69165 7911 ft 112 kts 210°
2026-04-25 00:43 35.09671 -111.69756 8069 ft 113 kts 225°
2026-04-25 00:44 35.09133 -111.70412 8297 ft 108 kts 224°
2026-04-25 00:44 35.08615 -111.71043 8506 ft 104 kts 225°
2026-04-25 00:44 35.08054 -111.71716 8480 ft 119 kts 224°
2026-04-25 00:44 35.07353 -111.72296 8491 ft 129 kts 199°
2026-04-25 00:45 35.06419 -111.72418 8463 ft 137 kts 190°
2026-04-25 00:45 35.05446 -111.72513 8477 ft 140 kts 189°
2026-04-25 00:45 35.04469 -111.72594 8458 ft 143 kts 189°
2026-04-25 00:45 35.03459 -111.72675 8451 ft 145 kts 188°
2026-04-25 00:46 35.02449 -111.72764 8450 ft 146 kts 188°
2026-04-25 00:46 35.01424 -111.72858 8455 ft 147 kts 188°
2026-04-25 00:46 34.99372 -111.73041 8460 ft 148 kts 189°
2026-04-25 00:47 34.98325 -111.73133 8460 ft 149 kts 188°
2026-04-25 00:47 34.97292 -111.73215 8452 ft 149 kts 188°
2026-04-25 00:47 34.96242 -111.73324 8449 ft 150 kts 188°
2026-04-25 00:47 34.95202 -111.73412 8448 ft 149 kts 189°
2026-04-25 00:48 34.94149 -111.73516 8458 ft 149 kts 189°
2026-04-25 00:48 34.93113 -111.73634 8448 ft 151 kts 188°
2026-04-25 00:48 34.91983 -111.73443 7899 ft 179 kts 170°
2026-04-25 00:48 34.90743 -111.73186 7255 ft 184 kts 184°
2026-04-25 00:49 34.89590 -111.73589 6928 ft 170 kts 206°
2026-04-25 00:49 34.88615 -111.74420 6422 ft 174 kts 222°
2026-04-25 00:49 34.87974 -111.75606 6190 ft 166 kts 251°
2026-04-25 00:49 34.87795 -111.76924 6188 ft 148 kts 254°
2026-04-25 00:50 34.87593 -111.78122 5998 ft 146 kts 251°
2026-04-25 00:50 34.87384 -111.79309 5957 ft 133 kts 247°
2026-04-25 00:50 34.86919 -111.80157 5818 ft 127 kts 211°
2026-04-25 00:50 34.86188 -111.80761 5604 ft 131 kts 224°
2026-04-25 00:51 34.85609 -111.81531 5635 ft 117 kts 221°
2026-04-25 00:51 34.85024 -111.82175 5583 ft 111 kts 206°
2026-04-25 00:51 34.84253 -111.82090 5382 ft 125 kts 149°
2026-04-25 00:51 34.83583 -111.81432 5285 ft 124 kts 147°
2026-04-25 00:52 34.82818 -111.80978 5240 ft 115 kts 163°
2026-04-25 00:52 34.82089 -111.80690 5276 ft 114 kts 163°
2026-04-25 00:52 34.81335 -111.80300 5384 ft 121 kts 156°
2026-04-25 00:52 34.80649 -111.79731 5559 ft 124 kts 133°
2026-04-25 00:53 34.80456 -111.78681 5764 ft 133 kts 92°
2026-04-25 00:53 34.80649 -111.77542 5810 ft 149 kts 69°
2026-04-25 00:53 34.81537 -111.76781 5584 ft 169 kts
2026-04-25 00:53 34.82710 -111.77052 5388 ft 174 kts 337°
2026-04-25 00:54 34.83840 -111.77096 5523 ft 158 kts 30°
2026-04-25 00:54 34.84724 -111.76364 5577 ft 145 kts 40°
2026-04-25 00:54 34.85630 -111.75915 5458 ft 144 kts 346°
2026-04-25 00:54 34.86312 -111.76591 5474 ft 115 kts 275°
2026-04-25 00:55 34.86088 -111.77370 5241 ft 101 kts 218°
2026-04-25 00:55 34.85576 -111.77940 4989 ft 100 kts 221°
2026-04-25 00:55 34.85125 -111.78512 4818 ft 81 kts 220°
2026-04-25 00:55 34.84803 -111.78906 4790 ft 45 kts 229°
2026-04-25 00:56 34.84671 -111.79076 4781 ft 29 kts 225°
2026-04-25 00:56 34.84668 -111.79215 4777 ft 16 kts 317°
2026-04-25 00:56 34.84697 -111.79246 4777 ft 0 kts 312°